• In India
  • List of Countries
  • For 7 days
  • Water Temperature
  • Satellite Maps
  • Weather Map
  • Weather Widgets
  • user-avatar
    Login

    Hourly Weather Sikorzyce

    Today, 21 September, Friday

    Time Temperature Precipitation Wind Pressure Humidity
    00:00 +20°C° 0 mm 3 mps 754 mmHg 72%
    01:00 +19°C° 0 mm 3 mps 754 mmHg 74%
    02:00 +19°C° 0 mm 3 mps 753 mmHg 75%
    03:00 +19°C° 0 mm 4 mps 753 mmHg 76%
    04:00 +19°C° 0 mm 4 mps 753 mmHg 77%
    05:00 +20°C° 0 mm 5 mps 752 mmHg 75%
    06:00 +20°C° 0 mm 5 mps 752 mmHg 74%
    07:00 +20°C° 0 mm 6 mps 751 mmHg 72%
    08:00 +22°C° 0 mm 7 mps 751 mmHg 66%
    09:00 +24°C° 0 mm 7 mps 751 mmHg 60%
    10:00 +27°C° 0 mm 8 mps 750 mmHg 54%
    11:00 +28°C° 0 mm 8 mps 749 mmHg 49%
    12:00 +29°C° 0 mm 9 mps 748 mmHg 45%
    13:00 +31°C° 0 mm 9 mps 748 mmHg 41%
    14:00 +29°C° 0.1 mm 9 mps 748 mmHg 43%
    15:00 +28°C° 0.1 mm 9 mps 747 mmHg 45%
    16:00 +28°C° 0.1 mm 8 mps 747 mmHg 47%
    17:00 +23°C° 1.5 mm 8 mps 748 mmHg 58%
    18:00 +18°C° 1.5 mm 8 mps 749 mmHg 69%
    19:00 +13°C° 1.5 mm 8 mps 749 mmHg 80%
    20:00 +13°C° 0.2 mm 8 mps 750 mmHg 78%
    21:00 +12°C° 0.2 mm 7 mps 751 mmHg 77%
    22:00 +12°C° 0.2 mm 7 mps 752 mmHg 75%
    23:00 +11°C° 0 mm 7 mps 752 mmHg 74%

    Tomorrow, 22 September, Saturday

    Time Temperature Precipitation Wind Pressure Humidity
    00:00 +11°C° 0 mm 7 mps 752 mmHg 73%
    01:00 +10°C° 0 mm 7 mps 752 mmHg 71%
    02:00 +10°C° 0 mm 8 mps 752 mmHg 70%
    03:00 +10°C° 0 mm 8 mps 752 mmHg 68%
    04:00 +10°C° 0 mm 8 mps 752 mmHg 67%
    05:00 +10°C° 0.1 mm 8 mps 753 mmHg 67%
    06:00 +10°C° 0.1 mm 8 mps 753 mmHg 67%
    07:00 +11°C° 0.1 mm 8 mps 754 mmHg 68%
    08:00 +11°C° 0.2 mm 8 mps 754 mmHg 66%
    09:00 +12°C° 0.2 mm 8 mps 754 mmHg 65%
    10:00 +13°C° 0.2 mm 8 mps 755 mmHg 64%
    11:00 +15°C° 0.2 mm 8 mps 755 mmHg 60%
    12:00 +15°C° 0.2 mm 8 mps 755 mmHg 57%
    13:00 +16°C° 0.2 mm 8 mps 755 mmHg 53%
    14:00 +16°C° 0.4 mm 8 mps 755 mmHg 56%
    15:00 +15°C° 0.4 mm 7 mps 755 mmHg 60%
    16:00 +15°C° 0.4 mm 7 mps 755 mmHg 63%
    17:00 +12°C° 0.4 mm 7 mps 755 mmHg 68%
    18:00 +11°C° 0.4 mm 7 mps 755 mmHg 73%
    19:00 +10°C° 0.4 mm 7 mps 755 mmHg 77%
    20:00 +10°C° 0.2 mm 7 mps 755 mmHg 77%
    21:00 +10°C° 0.2 mm 8 mps 755 mmHg 76%
    22:00 +9°C° 0.2 mm 8 mps 755 mmHg 76%
    23:00 +9°C° 0.2 mm 8 mps 755 mmHg 76%

    Day after tomorrow, 23 September, Sunday

    Time Temperature Precipitation Wind Pressure Humidity
    00:00 +9°C° 0.2 mm 8 mps 756 mmHg 76%
    01:00 +9°C° 0.2 mm 8 mps 756 mmHg 76%
    02:00 +9°C° 0.2 mm 8 mps 756 mmHg 78%
    03:00 +9°C° 0.2 mm 8 mps 756 mmHg 79%
    04:00 +9°C° 0.2 mm 8 mps 756 mmHg 80%
    05:00 +9°C° 0.1 mm 8 mps 756 mmHg 81%
    06:00 +9°C° 0.1 mm 7 mps 756 mmHg 81%
    07:00 +9°C° 0.1 mm 7 mps 757 mmHg 82%
    08:00 +10°C° 0.1 mm 7 mps 757 mmHg 77%
    09:00 +11°C° 0.1 mm 7 mps 757 mmHg 72%
    10:00 +12°C° 0.1 mm 7 mps 757 mmHg 67%
    11:00 +14°C° 0.2 mm 7 mps 757 mmHg 63%
    12:00 +15°C° 0.2 mm 7 mps 756 mmHg 59%
    13:00 +15°C° 0.2 mm 7 mps 756 mmHg 55%
    14:00 +15°C° 0.1 mm 6 mps 756 mmHg 56%
    15:00 +15°C° 0.1 mm 5 mps 755 mmHg 58%
    16:00 +14°C° 0.1 mm 4 mps 755 mmHg 59%
    17:00 +13°C° 0.2 mm 4 mps 754 mmHg 64%
    18:00 +12°C° 0.2 mm 3 mps 754 mmHg 68%
    19:00 +11°C° 0.2 mm 3 mps 753 mmHg 73%
    20:00 +10°C° 1.5 mm 3 mps 752 mmHg 79%
    21:00 +10°C° 1.5 mm 3 mps 751 mmHg 85%
    22:00 +9°C° 1.5 mm 3 mps 750 mmHg 90%
    23:00 +8°C° 1.4 mm 4 mps 748 mmHg 91%

    24 September, Monday

    Time Temperature Precipitation Wind Pressure Humidity
    00:00 +8°C° 1.4 mm 5 mps 746 mmHg 91%
    01:00 +8°C° 1.4 mm 6 mps 745 mmHg 91%
    02:00 +9°C° 2.3 mm 7 mps 743 mmHg 92%
    03:00 +9°C° 2.3 mm 8 mps 741 mmHg 92%
    04:00 +9°C° 2.3 mm 8 mps 740 mmHg 93%
    05:00 +8°C° 6.2 mm 10 mps 739 mmHg 92%
    06:00 +8°C° 6.2 mm 11 mps 739 mmHg 92%
    07:00 +7°C° 6.2 mm 12 mps 739 mmHg 92%
    08:00 +8°C° 2.7 mm 12 mps 741 mmHg 89%
    09:00 +8°C° 2.7 mm 12 mps 743 mmHg 86%
    10:00 +8°C° 2.7 mm 13 mps 745 mmHg 82%
    11:00 +8°C° 1 mm 13 mps 747 mmHg 82%
    12:00 +8°C° 1 mm 13 mps 749 mmHg 81%
    13:00 +8°C° 1 mm 13 mps 752 mmHg 80%
    14:00 +8°C° 0.3 mm 11 mps 753 mmHg 74%
    15:00 +9°C° 0.3 mm 10 mps 755 mmHg 68%
    16:00 +10°C° 0.3 mm 9 mps 757 mmHg 61%
    17:00 +10°C° 0 mm 9 mps 758 mmHg 60%
    18:00 +9°C° 0 mm 8 mps 759 mmHg 58%
    19:00 +9°C° 0 mm 8 mps 760 mmHg 56%
    20:00 +9°C° 0.1 mm 8 mps 761 mmHg 57%
    21:00 +7°C° 0.1 mm 8 mps 762 mmHg 58%
    22:00 +7°C° 0.1 mm 8 mps 763 mmHg 59%
    23:00 +7°C° 0 mm 8 mps 763 mmHg 59%

    25 September, Tuesday

    Time Temperature Precipitation Wind Pressure Humidity
    00:00 +7°C° 0 mm 8 mps 764 mmHg 59%
    01:00 +8°C° 0 mm 7 mps 765 mmHg 59%
    02:00 +8°C° 0 mm 7 mps 765 mmHg 59%
    03:00 +7°C° 0 mm 6 mps 766 mmHg 59%
    04:00 +7°C° 0 mm 6 mps 766 mmHg 59%
    05:00 +8°C° 0.1 mm 6 mps 766 mmHg 62%
    06:00 +8°C° 0.1 mm 7 mps 767 mmHg 65%
    07:00 +8°C° 0.1 mm 7 mps 767 mmHg 68%
    08:00 +9°C° 0 mm 8 mps 767 mmHg 65%
    09:00 +10°C° 0 mm 8 mps 767 mmHg 61%
    10:00 +11°C° 0 mm 9 mps 767 mmHg 58%
    11:00 +11°C° 0.6 mm 9 mps 766 mmHg 65%
    12:00 +11°C° 0.6 mm 10 mps 765 mmHg 71%
    13:00 +9°C° 0.6 mm 10 mps 765 mmHg 78%
    14:00 +9°C° 1.4 mm 11 mps 764 mmHg 79%
    15:00 +9°C° 1.4 mm 11 mps 764 mmHg 80%
    16:00 +10°C° 1.4 mm 12 mps 763 mmHg 81%
    17:00 +9°C° 1.5 mm 11 mps 763 mmHg 81%
    18:00 +9°C° 1.5 mm 11 mps 763 mmHg 82%
    19:00 +9°C° 1.5 mm 10 mps 763 mmHg 83%
    20:00 +10°C° 0.9 mm 9 mps 763 mmHg 80%
    21:00 +10°C° 0.9 mm 8 mps 763 mmHg 77%
    22:00 +9°C° 0.9 mm 7 mps 764 mmHg 74%
    23:00 +9°C° 0 mm 6 mps 764 mmHg 73%

    26 September, Wednesday

    Time Temperature Precipitation Wind Pressure Humidity
    00:00 +8°C° 0 mm 5 mps 764 mmHg 73%
    01:00 +8°C° 0 mm 5 mps 765 mmHg 72%
    02:00 +8°C° 0 mm 4 mps 765 mmHg 72%
    03:00 +8°C° 0 mm 3 mps 765 mmHg 71%
    04:00 +8°C° 0 mm 3 mps 766 mmHg 71%
    05:00 +8°C° 0 mm 3 mps 766 mmHg 72%
    06:00 +9°C° 0 mm 3 mps 766 mmHg 73%
    07:00 +9°C° 0 mm 3 mps 767 mmHg 74%
    08:00 +11°C° 0 mm 3 mps 767 mmHg 71%
    09:00 +12°C° 0 mm 3 mps 767 mmHg 68%
    10:00 +14°C° 0 mm 4 mps 767 mmHg 65%
    11:00 +14°C° 0.1 mm 4 mps 767 mmHg 66%
    12:00 +15°C° 0.1 mm 5 mps 767 mmHg 67%
    13:00 +15°C° 0.1 mm 5 mps 767 mmHg 68%
    14:00 +15°C° 0.1 mm 5 mps 767 mmHg 70%
    15:00 +14°C° 0.1 mm 6 mps 767 mmHg 72%
    16:00 +14°C° 0.1 mm 6 mps 766 mmHg 74%
    17:00 +13°C° 0 mm 5 mps 766 mmHg 78%
    18:00 +12°C° 0 mm 5 mps 766 mmHg 83%
    19:00 +11°C° 0 mm 4 mps 767 mmHg 87%
    20:00 +11°C° 0 mm 4 mps 767 mmHg 87%
    21:00 +10°C° 0 mm 4 mps 767 mmHg 87%
    22:00 +10°C° 0 mm 4 mps 767 mmHg 87%
    23:00 +10°C° 0 mm 4 mps 766 mmHg 88%
    Show more